Pendleton, OR

3:49 AM PDT on August 25, 2016 (GMT -0700)
Eastern Oreg Regional At Pendleton

Weather History for KPDT - May, 2013

Change the Weather History Date:

Monday, May 13, 2013

  Actual Average Record
Temperature  
Mean Temperature 59 °F 57 °F  
Max Temperature 71 °F 69 °F 96 °F (1931)
Min Temperature 46 °F 45 °F 30 °F (1903)
Degree Days  
Heating Degree Days 6 9  
Month to date heating degree days 57 130  
Since 1 July heating degree days 4844 5077  
Cooling Degree Days 0 1  
Month to date cooling degree days 31 4  
Year to date cooling degree days 31 5  
Growing Degree Days 10 (Base 50)    
Moisture  
Dew Point 47 °F    
Average Humidity 69    
Maximum Humidity 93    
Minimum Humidity 44    
Precipitation  
Precipitation 0.13 in 0.04 in 0.61 in (1952)
Month to date precipitation 0.13 0.54  
Year to date precipitation 2.98 5.60  
Snow  
Snow 0.00 in 0.00 in 0.00 in (2002)
Month to date snowfall 0.0 0.0  
Year to date snowfall 0.2 7.7  
Since 1 July snowfall 2.0 15.2  
Snow Depth 0.00 in    
Sea Level Pressure  
Sea Level Pressure 30.02 in    
Wind  
Wind Speed 12 mph (West)    
Max Wind Speed 28 mph    
Max Gust Speed 35 mph    
Visibility 9 miles    
Events Rain , Thunderstorm    
T = Trace of Precipitation, MM = Missing Value Source: NWS Daily Summary

Daily Weather History Graph

Daily Weather History Graph

Search for Another Location

Airport or City:

Trip Planner

Search our weather history database for the weather conditions in past years. The results will help you decide how hot, cold, wet, or windy it might be!

Date:

Astronomy

May. 13, 2013 Rise Set
Actual Time 5:26 AM PDT 8:18 PM PDT
Civil Twilight 4:51 AM PDT 8:52 PM PDT
Nautical Twilight 4:07 AM PDT 9:36 PM PDT
Astronomical Twilight 3:15 AM PDT 10:29 PM PDT
Moon 8:15 AM PDT (5/13) 11:30 PM PDT (5/13)
Length of Visible Light 16h 01m
Length of Day
14h 51m
Waxing Crescent, 13% of the Moon is Illuminated
May 13
Waxing Crescent
May 17
First Quarter
May 24
Full
May 31
Last Quarter
Jun 8
New

Hourly Weather History & Observations

Time (PDT) Temp. Dew Point Humidity Pressure Visibility Wind Dir Wind Speed Gust Speed Precip Events Conditions
12:53 AM 60.1 °F 46.0 °F 60% 30.00 in 10.0 mi North - - N/A   Clear
1:53 AM 57.9 °F 46.0 °F 65% 29.99 in 10.0 mi North - - N/A   Partly Cloudy
2:53 AM 55.0 °F 46.0 °F 72% 29.98 in 10.0 mi North - - N/A   Clear
3:53 AM 51.1 °F 46.0 °F 83% 29.98 in 10.0 mi North - - N/A   Clear
4:53 AM 50.0 °F 45.0 °F 83% 29.99 in 10.0 mi ESE 4.6 mph - N/A   Mostly Cloudy
5:53 AM 52.0 °F 46.0 °F 80% 29.99 in 10.0 mi SE 6.9 mph - N/A   Scattered Clouds
6:53 AM 57.0 °F 48.0 °F 72% 30.00 in 10.0 mi SSE 8.1 mph - N/A   Mostly Cloudy
7:53 AM 60.1 °F 48.9 °F 67% 29.99 in 10.0 mi SSE 3.5 mph - N/A   Overcast
8:53 AM 66.0 °F 51.1 °F 59% 29.99 in 10.0 mi West 11.5 mph - N/A   Clear
9:53 AM 66.9 °F 51.1 °F 57% 29.97 in 10.0 mi WSW 11.5 mph - N/A   Mostly Cloudy
10:53 AM 69.1 °F 48.9 °F 49% 29.95 in 10.0 mi NW 10.4 mph - N/A   Mostly Cloudy
11:53 AM 71.1 °F 48.9 °F 45% 29.96 in 10.0 mi WNW 16.1 mph 25.3 mph N/A   Mostly Cloudy
1:53 PM 64.0 °F 46.0 °F 52% 29.97 in 10.0 mi WNW 23.0 mph 27.6 mph N/A   Overcast
2:53 PM 62.1 °F 45.0 °F 53% 30.00 in 10.0 mi WNW 23.0 mph 28.8 mph N/A   Overcast
3:10 PM 55.9 °F 50.0 °F 80% 30.04 in 6.0 mi NW 20.7 mph 27.6 mph 0.01 in Rain Rain
3:11 PM 55.9 °F 50.0 °F 80% 30.04 in 5.0 mi NW 19.6 mph 27.6 mph 0.01 in Rain , Thunderstorm Thunderstorms and Rain
3:22 PM 55.0 °F 51.1 °F 86% 30.06 in 3.0 mi NW 11.5 mph 21.9 mph 0.09 in Rain , Thunderstorm Thunderstorms and Rain
3:29 PM 55.0 °F 52.0 °F 89% 30.05 in 3.0 mi NW 6.9 mph - 0.12 in Rain Heavy Rain
3:53 PM 57.0 °F 52.0 °F 83% 30.03 in 10.0 mi Calm Calm - 0.13 in   Overcast
4:53 PM 55.4 °F 53.6 °F 94% 30.03 in 10.0 mi SE 10.4 mph - N/A   Mostly Cloudy
5:53 PM 60.1 °F 53.1 °F 78% 30.01 in 10.0 mi WSW 8.1 mph - N/A   Scattered Clouds
6:53 PM 62.1 °F 46.0 °F 56% 30.01 in 10.0 mi West 21.9 mph - N/A   Clear
7:53 PM 57.9 °F 45.0 °F 62% 30.04 in 10.0 mi WNW 17.3 mph - N/A   Clear
8:53 PM 54.0 °F 42.1 °F 64% 30.09 in 10.0 mi West 17.3 mph - N/A   Clear
9:53 PM 52.0 °F 42.1 °F 69% 30.13 in 10.0 mi West 13.8 mph - N/A   Clear
10:53 PM 50.0 °F 41.0 °F 71% 30.14 in 10.0 mi West 4.6 mph - N/A   Clear
11:53 PM 48.0 °F 39.9 °F 74% 30.15 in 10.0 mi SSE 6.9 mph - N/A   Clear